Regional Weather Roundup
Issued by NWS

Home | Current Version | Previous Version | Text Only | Print | Product List | Glossary Off
Versions: 1 2 3 4 5 6 7 8 9 10 11 12 13 14 15 16 17 18 19 20 21 22 23 24 25 26 27 28 29 30 31 32 33 34 35 36 37 38 39 40 41 42 43 44 45 46 47 48 49 50

000
ASUS43 KLSX 171957
RWRMO

WEATHER SUMMARY FOR MISSOURI
NATIONAL WEATHER SERVICE SPRINGFIELD MO
200 PM CST SUN DEC 17 2017

NOTE: "FAIR" INDICATES FEW OR NO CLOUDS BELOW 12,000 FEET WITH NO
       SIGNIFICANT WEATHER AND/OR OBSTRUCTIONS TO VISIBILITY.
       CURRENT SKY AND/OR WEATHER CONDITIONS ARE NOT AVAILABLE FOR
       CHILLICOTHE AND FARMINGTON.

MOZ001>031-035>038-043-044-053-054-172100-
...NORTHERN AND WESTERN MISSOURI...

CITY           SKY/WX    TMP DP  RH WIND       PRES   REMARKS
KANSAS CTY INT CLOUDY    46  43  89 W5        29.96F
LEE`S SUMMIT   CLOUDY    47  44  90 SW7       29.97F
ST JOSEPH      CLOUDY    48  45  89 NW6       29.96F
CHILLICOTHE      N/A     46  44  93 S5        29.98F

$$
MOZ066>068-077>081-088>096-101>105-172100-
...SOUTHWEST MISSOURI...

CITY           SKY/WX    TMP DP  RH WIND       PRES   REMARKS
SPRINGFIELD    CLOUDY    47  44  90 W8        30.01S FOG
JOPLIN         CLOUDY    46  44  93 W8        30.03S
BRANSON        FOG       45  45 100 CALM      30.04F VSB 1/2

$$
MOZ032>034-039>042-045>050-055>058-069>072-172100-
...CENTRAL MISSOURI...

CITY           SKY/WX    TMP DP  RH WIND       PRES   REMARKS
COLUMBIA       NOT AVBL
JEFFERSON CITY CLOUDY    46  42  86 CALM      30.01F
ROLLA          CLOUDY    47  42  83 S8        30.00F
SEDALIA        CLOUDY    46  46 100 SW8       30.00F FOG
WARRENSBURG    CLOUDY    45  43  93 S7        29.98F

$$
MOZ051-052-059>065-172100-
...EAST CENTRAL MISSOURI...

CITY           SKY/WX    TMP DP  RH WIND       PRES   REMARKS
ST LOUIS INTL  PTSUNNY   54  37  52 SW9       30.00F

$$
MOZ072>076-082>087-097>100-106>115-172100-
...SOUTH CENTRAL AND SOUTHEAST MISSOURI...

CITY           SKY/WX    TMP DP  RH WIND       PRES   REMARKS
CAPE GIRARDEAU CLOUDY    45  42  89 SW6       30.07F
POPLAR BLUFF   CLOUDY    47  43  86 SW6       30.06F
WEST PLAINS    CLOUDY    45  44  97 SW3       30.04F FOG

$$



USA.gov is the U.S. government's official web portal to all federal, state and local government web resources and services.